Location: Bullenkuhlen
(53.7689°N, 9.7495°E)
Time: 10:11:46
(UTC+00:00)

Cosmos 2360 Rocket - Pass Details

Date: 09 April 2020
Orbit: 834 x 845 km, 71.0° (Epoch: 25 May)

Event Time Altitude Azimuth Distance (km) Brightness Sun altitude
Rises 19:43:03 0° 316° (NW) 3,393 7.1 -13.0°
Reaches altitude 10° 19:46:39 10° 339° (NNW) 2,458 5.5 -13.5°
Maximum altitude 19:49:52 15° 14° (NNE) 2,110 4.5 -13.8°
Drops below altitude 10° 19:53:04 10° 49° (NE) 2,458 4.5 -14.2°
Enters shadow 19:56:09 - 70° (ENE) 3,244 4.9 -14.6°
